Date,TemperatureHighF,TemperatureAvgF,TemperatureLowF,DewpointHighF,DewpointAvgF,DewpointLowF,HumidityHigh,HumidityAvg,HumidityLow,PressureMaxIn,PressureMinIn,WindSpeedMaxMPH,WindSpeedAvgMPH,GustSpeedMaxMPH,PrecipitationSumIn
2013-1-1,38.0,33.7,25.0,30.0,24.6,16.0,79,69,60,29.88,29.73,10,6,21,0.10
2013-1-2,33.0,24.9,18.0,18.0,14.0,9.0,72,63,53,30.04,29.87,13,6,27,0.04
2013-1-3,26.0,19.2,10.0,15.0,8.3,2.0,76,62,47,30.11,30.01,11,3,19,0.01
2013-1-4,39.0,31.3,19.0,29.0,23.1,13.0,83,72,55,30.01,29.83,10,5,26,0.02
2013-1-5,43.0,33.9,26.0,29.0,25.1,22.0,91,71,52,30.24,29.86,11,4,23,0.01
2013-1-6,42.0,34.0,26.0,37.0,30.7,23.0,96,88,79,30.20,29.93,10,2,23,0.02
2013-1-7,40.0,33.9,25.0,35.0,29.7,23.0,93,85,77,30.40,29.95,9,3,22,0.01
2013-1-8,47.0,39.7,25.0,37.0,34.4,24.0,96,82,62,30.37,30.29,16,6,31,0.00
2013-1-9,48.0,38.5,28.0,45.0,35.9,27.0,98,91,75,30.37,30.01,14,4,31,0.00
2013-1-10,46.0,42.4,39.0,37.0,31.0,27.0,75,64,52,30.47,30.04,12,6,28,0.00
2013-1-11,43.0,38.7,31.0,39.0,33.6,28.0,95,82,70,30.47,30.21,6,1,17,0.08
2013-1-12,47.0,42.7,39.0,44.0,41.0,37.0,98,94,83,30.22,30.11,7,2,13,0.09
2013-1-13,48.0,45.2,43.0,48.0,44.9,42.0,100,99,97,30.15,30.02,10,4,18,0.01
2013-1-14,56.0,49.6,44.0,56.0,47.9,37.0,100,95,72,30.21,29.94,12,4,23,0.01
2013-1-15,44.0,40.5,38.0,40.0,37.3,36.0,95,89,79,30.26,30.17,8,1,18,0.14
2013-1-16,40.0,40.0,40.0,37.0,37.0,37.0,90,90,90,30.21,29.70,7,2,18,0.01
2013-1-17,44.0,41.0,36.0,37.0,34.6,32.0,94,78,65,30.04,29.84,9,3,20,0.00
2013-1-18,42.0,30.9,24.0,33.0,18.4,7.0,78,59,46,30.47,29.98,15,6,30,0.00
2013-1-19,47.0,37.1,24.0,39.0,26.2,7.0,77,64,47,30.42,29.95,18,9,34,0.00
2013-1-20,52.0,48.4,45.0,42.0,37.3,33.0,84,66,49,29.95,29.58,20,10,36,0.00
2013-1-21,50.0,37.0,26.0,34.0,21.1,8.0,58,53,38,30.09,29.76,11,3,24,0.00
2013-1-22,29.0,26.0,23.0,20.0,10.9,3.0,85,53,38,30.04,29.70,13,5,26,0.13
2013-1-23,23.0,18.2,12.0,3.0,-0.2,-5.0,48,44,41,30.12,30.03,14,7,23,0.01
2013-1-24,20.0,16.7,10.0,5.0,-0.1,-2.0,64,47,41,30.17,30.01,13,7,28,0.00
2013-1-25,26.0,21.2,13.0,4.0,1.2,-3.0,50,41,33,30.28,30.02,11,4,21,0.00
2013-1-26,25.0,24.0,20.0,19.0,9.9,3.0,87,56,40,30.16,29.94,13,6,27,0.00
2013-1-27,30.0,26.2,19.0,13.0,11.1,9.0,65,52,44,30.43,30.16,13,7,28,0.01
2013-1-28,32.0,29.7,27.0,18.0,12.6,3.0,60,49,29,30.43,29.98,6,1,11,0.01
2013-1-29,30.0,30.0,30.0,18.0,18.0,18.0,60,60,60,30.18,29.97,5,1,11,0.00
2013-1-30,53.0,40.8,30.0,52.0,35.1,18.0,99,81,60,30.14,29.58,20,10,32,0.00
2013-1-31,52.0,47.0,44.0,50.0,37.6,31.0,98,72,59,29.59,29.08,19,10,35,0.00
2013-2-1,44.0,35.4,30.0,31.0,17.2,10.0,61,48,40,30.05,29.59,13,6,26,0.00
2013-2-2,32.0,29.4,22.0,18.0,12.9,5.0,63,50,38,30.23,30.03,10,4,22,0.00
2013-2-3,32.0,29.6,26.0,28.0,23.7,17.0,92,79,60,30.03,29.64,12,4,26,0.03
2013-2-4,32.0,29.7,25.0,27.0,17.2,10.0,88,61,41,29.93,29.67,12,6,24,0.02
2013-2-7,36.0,29.1,25.0,24.0,16.4,11.0,63,59,46,30.49,30.24,9,4,18,0.01
2013-2-8,25.0,25.0,25.0,14.0,14.0,14.0,63,63,63,30.46,29.36,17,7,41,0.00
2013-2-11,43.0,43.0,43.0,42.0,42.0,42.0,98,98,97,29.85,29.58,17,8,31,0.32
2013-2-12,45.0,42.8,38.0,42.0,34.5,29.0,98,74,54,29.86,29.58,14,6,26,0.01
2013-2-13,42.0,39.5,34.0,30.0,27.6,25.0,71,62,54,29.86,29.64,9,3,15,0.00
2013-2-14,41.0,38.3,34.0,36.0,28.0,25.0,97,67,56,30.01,29.66,7,2,17,0.19
2013-2-15,46.0,41.1,36.0,40.0,34.1,26.0,98,76,59,30.04,29.93,13,5,24,0.01
2013-2-16,41.0,37.8,36.0,38.0,35.3,34.0,93,91,88,29.93,29.62,10,6,22,0.00
2013-2-17,36.0,29.2,22.0,34.0,27.1,19.0,95,91,87,29.62,29.24,22,13,48,0.00
2013-2-18,32.0,27.3,18.0,19.0,10.2,5.0,87,52,32,30.13,29.61,14,8,32,0.04
2013-2-19,44.0,38.6,30.0,39.0,26.2,5.0,85,64,34,30.15,29.60,15,7,30,0.01
2013-2-20,43.0,37.6,33.0,38.0,25.7,15.0,86,64,47,29.77,29.53,12,6,25,0.00
2013-2-21,34.0,31.7,27.0,20.0,17.5,15.0,66,55,47,30.05,29.76,15,8,30,0.00
2013-2-22,37.0,34.1,31.0,29.0,25.1,20.0,76,70,63,30.34,30.05,13,5,27,0.00
2013-2-23,39.0,37.1,36.0,33.0,30.9,29.0,85,78,75,30.33,29.85,10,4,19,0.00
2013-2-24,44.0,39.2,37.0,43.0,36.6,32.0,98,91,81,29.85,29.53,11,7,27,0.14
2013-2-25,41.0,36.8,28.0,39.0,31.6,26.0,98,83,65,30.22,29.82,10,4,23,0.01
2013-2-26,44.0,34.9,25.0,36.0,28.7,23.0,95,79,51,30.32,30.13,8,2,15,0.01
2013-2-27,45.0,42.9,40.0,44.0,41.7,35.0,99,95,83,30.13,29.54,20,10,36,0.71
2013-2-28,41.0,39.3,36.0,41.0,38.2,35.0,99,96,90,29.62,29.49,8,2,17,0.03
2013-3-1,41.0,38.0,35.0,37.0,34.7,33.0,98,88,77,29.64,29.48,11,5,23,0.01
2013-3-2,41.0,37.7,35.0,34.0,31.7,30.0,85,79,68,29.65,29.59,7,3,18,0.00
2013-3-3,40.0,36.9,35.0,34.0,31.8,29.0,90,82,73,29.60,29.54,6,2,14,0.00
2013-3-4,42.0,36.0,31.0,32.0,28.6,25.0,94,75,56,29.66,29.54,11,6,26,0.00
2013-3-5,40.0,36.9,34.0,38.0,32.7,28.0,95,85,75,30.03,29.66,11,6,26,0.01
2013-3-6,42.0,38.3,35.0,37.0,35.4,34.0,98,90,79,30.04,29.90,14,6,38,0.03
2013-3-7,38.0,36.3,35.0,36.0,35.1,34.0,97,95,90,29.91,29.82,16,12,43,1.33
2013-3-8,42.0,35.9,33.0,36.0,33.9,32.0,98,93,71,30.03,29.80,14,10,36,1.24
2013-3-9,40.0,37.1,36.0,34.0,32.8,31.0,90,84,78,30.29,30.02,13,8,32,0.01
2013-3-10,42.0,38.1,36.0,35.0,33.2,32.0,89,82,75,30.37,30.28,7,3,18,0.00
2013-3-11,46.0,40.6,36.0,41.0,37.2,33.0,94,88,80,30.32,30.17,12,6,22,0.00
2013-3-12,52.0,48.1,42.0,51.0,46.4,40.0,98,94,88,30.18,29.74,16,10,34,0.46
2013-3-13,52.0,46.5,39.0,52.0,39.7,24.0,99,79,53,29.76,29.67,14,4,30,0.99
2013-3-14,39.0,34.3,26.0,27.0,20.7,11.0,73,58,43,29.79,29.67,12,4,28,0.06
2013-3-15,40.0,31.6,23.0,29.0,16.9,10.0,73,55,31,29.85,29.65,13,7,31,0.00
2013-3-16,37.0,34.7,32.0,29.0,22.9,18.0,75,62,49,29.84,29.66,10,3,24,0.00
2013-3-17,38.0,33.4,27.0,29.0,21.7,14.0,91,64,44,30.26,29.84,10,4,20,0.00
2013-3-18,36.0,31.4,27.0,27.0,18.1,9.0,82,58,46,30.42,30.22,9,4,21,0.00
2013-3-19,45.0,37.2,31.0,44.0,35.8,26.0,98,95,83,30.22,29.45,18,8,34,0.66
2013-3-20,43.0,35.1,29.0,32.0,24.8,20.0,94,68,42,29.82,29.60,14,6,26,0.01
2013-3-21,39.0,33.9,29.0,32.0,29.1,25.0,97,83,63,29.82,29.55,9,4,20,0.00
2013-3-22,38.0,33.5,29.0,32.0,28.6,24.0,98,83,60,29.72,29.55,7,3,17,0.32
2013-3-23,43.0,36.5,30.0,28.0,23.4,21.0,77,60,43,29.75,29.62,11,6,31,0.01
2013-3-24,43.0,37.3,32.0,30.0,25.6,21.0,82,63,49,29.80,29.72,9,4,20,0.00
2013-3-25,46.0,38.0,31.0,36.0,31.2,27.0,96,78,53,29.75,29.41,11,4,30,0.00
2013-3-26,45.0,39.7,35.0,34.0,30.7,25.0,92,71,46,29.74,29.41,12,6,27,0.03
2013-3-27,52.0,42.6,31.0,38.0,28.9,25.0,90,60,35,29.82,29.72,8,3,18,0.01
2013-3-28,46.0,41.2,38.0,40.0,36.7,33.0,96,85,71,30.00,29.80,10,5,21,0.04
2013-3-29,53.0,45.9,38.0,39.0,36.0,33.0,83,69,57,30.02,29.97,8,3,19,0.01
2013-3-30,52.0,45.1,39.0,38.0,35.3,26.0,89,70,38,30.08,30.00,8,3,16,0.00
2013-3-31,54.0,43.3,30.0,42.0,34.1,-99.9,92,74,39,30.11,29.77,12,4,29,0.03
2013-4-1,55.0,47.9,39.0,47.0,42.9,19.0,98,84,49,29.77,29.55,16,8,31,0.30
2013-4-2,43.0,36.7,30.0,21.0,16.9,10.0,59,45,30,29.96,29.76,12,7,28,0.05
2013-4-3,47.0,38.5,31.0,17.0,15.2,13.0,54,39,26,30.11,29.92,12,8,30,0.00
2013-4-4,47.0,39.3,31.0,35.0,22.9,16.0,82,53,36,30.28,30.09,13,8,25,0.00
2013-4-5,51.0,43.4,40.0,45.0,38.6,33.0,95,83,70,30.09,29.63,12,5,23,0.06
2013-4-6,42.0,38.4,33.0,36.0,22.1,13.0,80,53,32,30.33,29.82,14,6,26,0.01
2013-4-7,48.0,40.6,28.0,43.0,33.1,25.0,92,76,47,30.33,30.04,17,8,34,0.00
2013-4-8,59.0,51.5,45.0,47.0,43.3,40.0,93,75,54,30.11,29.96,14,6,25,0.00
2013-4-9,68.0,52.9,45.0,54.0,46.7,40.0,98,81,59,30.10,29.83,13,5,22,0.01
2013-4-10,56.0,48.8,45.0,50.0,44.9,42.0,97,87,72,30.00,29.85,8,3,15,0.33
2013-4-11,50.0,46.2,44.0,46.0,41.0,34.0,99,84,62,30.12,29.79,7,3,16,0.26
2013-4-12,44.0,42.2,38.0,43.0,36.6,29.0,98,82,57,30.14,29.65,16,5,29,0.94
2013-4-13,46.0,41.8,39.0,42.0,39.2,37.0,98,91,75,29.93,29.65,14,6,30,0.54
2013-4-14,56.0,46.7,40.0,43.0,38.6,30.0,95,75,51,30.16,29.92,10,3,24,0.01
2013-4-15,52.0,44.7,39.0,43.0,37.7,30.0,93,77,59,30.41,30.16,9,3,14,0.00
2013-4-16,56.0,47.7,38.0,48.0,43.0,37.0,98,85,68,30.41,30.11,18,8,29,0.00
2013-4-17,60.0,53.0,42.0,52.0,44.0,34.0,96,74,38,30.32,30.08,16,5,29,0.00
2013-4-18,55.0,47.8,38.0,46.0,38.3,30.0,97,72,43,30.41,30.17,14,5,25,0.00
2013-4-19,63.0,56.3,50.0,59.0,54.7,47.0,99,95,87,30.17,29.76,20,11,36,0.00
2013-4-20,59.0,53.0,45.0,59.0,49.5,39.0,99,88,68,30.16,29.68,18,7,34,0.33
2013-4-21,47.0,42.8,36.0,40.0,29.1,25.0,76,58,44,30.65,30.16,10,5,23,0.01
2013-4-22,51.0,42.4,34.0,37.0,32.7,27.0,86,70,43,30.71,30.55,10,3,21,0.00
2013-4-23,45.0,43.5,41.0,44.0,41.9,35.0,98,95,79,30.55,29.97,10,4,27,1.06
2013-4-24,58.0,48.5,43.0,52.0,45.8,42.0,99,91,74,29.98,29.80,20,10,38,1.27
2013-4-25,57.0,52.0,44.0,53.0,46.4,40.0,97,83,53,30.23,29.90,12,5,22,0.06
2013-4-26,61.0,49.9,41.0,44.0,39.7,35.0,98,72,41,30.40,30.23,7,2,16,0.02
2013-4-27,59.0,49.0,38.0,46.0,38.4,32.0,98,70,39,30.40,30.32,6,2,13,0.00
2013-4-28,62.0,51.0,38.0,47.0,40.7,-99.9,92,73,42,30.34,30.26,10,3,16,0.00
2013-4-29,63.0,52.2,44.0,48.0,40.2,24.0,96,69,23,30.28,30.23,8,3,17,0.00
2013-4-30,64.0,51.9,40.0,43.0,35.8,28.0,96,59,27,30.35,30.24,6,1,13,0.00
2013-5-1,62.0,51.6,40.0,50.0,45.2,38.0,98,80,62,30.46,30.34,7,2,14,0.00
2013-5-2,71.0,54.2,42.0,50.0,42.5,35.0,98,70,28,30.45,30.36,6,2,14,0.00
2013-5-3,51.0,46.9,41.0,45.0,42.5,39.0,95,85,77,30.46,30.33,10,3,22,0.00
2013-5-4,53.0,47.7,43.0,44.0,41.2,38.0,95,79,61,30.34,30.29,8,3,21,0.00
2013-5-5,57.0,48.8,42.0,45.0,42.5,40.0,95,80,56,30.29,30.24,8,2,18,0.00
2013-5-6,63.0,50.5,43.0,53.0,46.6,42.0,98,88,63,30.27,30.16,7,2,14,0.00
2013-5-7,70.0,57.3,47.0,60.0,53.8,46.0,99,89,71,30.18,30.13,9,2,15,0.00
2013-5-8,70.0,60.6,54.0,63.0,58.0,53.0,99,91,76,30.19,30.04,10,4,19,0.10
2013-5-9,67.0,59.1,54.0,63.0,57.6,53.0,100,95,86,30.04,29.88,9,3,15,0.36
2013-5-10,75.0,61.5,54.0,62.0,54.5,-99.9,99,83,52,29.96,29.87,11,4,17,0.01
2013-5-11,64.0,59.5,55.0,61.0,57.9,54.0,99,95,82,29.95,29.73,17,8,25,0.54
2013-5-12,65.0,58.8,53.0,62.0,54.3,-99.9,100,88,65,29.78,29.59,12,6,20,0.57
2013-5-13,59.0,52.1,42.0,43.0,37.5,33.0,80,58,40,29.98,29.78,15,6,29,0.01
2013-5-14,56.0,51.3,47.0,43.0,38.1,32.0,77,61,41,30.03,29.96,11,4,22,0.00
2013-5-15,61.0,53.6,42.0,56.0,44.9,35.0,93,73,51,30.05,29.68,17,8,32,0.01
2013-5-16,76.0,58.2,52.0,56.0,31.4,-99.9,97,65,33,29.76,29.65,13,6,24,0.01
2013-5-17,63.0,56.7,50.0,50.0,42.7,-99.9,92,69,48,30.20,29.76,11,4,20,0.00
2013-5-18,69.0,57.4,44.0,54.0,49.0,42.0,96,76,49,30.30,30.20,9,3,18,0.00
2013-5-19,69.0,59.9,51.0,55.0,51.1,48.0,96,75,51,30.34,30.25,11,5,21,0.08
2013-5-20,75.0,63.6,56.0,66.0,60.6,55.0,99,91,70,30.25,29.92,10,5,17,0.40
2013-5-21,75.0,63.0,58.0,68.0,60.1,56.0,100,91,74,29.96,29.85,13,3,19,0.01
2013-5-22,69.0,59.3,52.0,62.0,57.1,51.0,99,93,78,29.95,29.89,13,4,22,0.01
2013-5-23,71.0,64.8,61.0,66.0,63.3,60.0,99,95,83,29.95,29.87,16,10,29,0.28
2013-5-24,65.0,62.1,55.0,65.0,62.1,55.0,100,100,99,29.87,29.67,24,8,47,1.60
2013-5-25,56.0,51.5,44.0,55.0,50.4,43.0,100,96,85,29.74,29.65,13,6,23,0.23
2013-5-26,58.0,49.0,41.0,46.0,42.6,39.0,97,80,59,30.06,29.71,8,4,21,0.07
2013-5-27,70.0,58.0,46.0,48.0,43.8,38.0,88,62,33,30.15,30.06,10,4,20,0.01
2013-5-28,68.0,58.7,47.0,57.0,50.7,45.0,97,77,47,30.23,30.15,8,3,13,0.00
2013-5-29,68.0,60.1,57.0,64.0,58.9,56.0,99,96,87,30.22,30.01,12,7,25,0.70
2013-5-30,84.0,71.2,61.0,72.0,65.3,60.0,99,83,65,30.07,30.01,10,5,21,0.19
2013-5-31,90.0,75.6,62.0,71.0,64.6,60.0,94,71,42,30.08,29.96,11,4,20,0.01
2013-6-1,82.0,70.8,62.0,69.0,64.3,60.0,94,81,62,29.99,29.92,12,7,25,0.00
2013-6-2,75.0,67.9,64.0,67.0,62.8,-99.9,95,87,75,29.94,29.83,17,11,31,0.00
2013-6-3,66.0,64.4,63.0,66.0,64.1,62.0,100,99,95,29.86,29.78,12,7,26,2.19
2013-6-4,67.0,61.4,53.0,64.0,51.2,44.0,100,71,45,30.05,29.78,8,3,16,0.03
2013-6-5,70.0,59.9,51.0,55.0,50.1,46.0,99,72,42,30.18,30.05,8,2,16,0.00
2013-6-6,72.0,62.0,53.0,57.0,52.7,49.0,94,73,51,30.19,30.08,8,2,19,0.00
2013-6-7,67.0,58.4,56.0,67.0,56.4,52.0,100,94,79,30.09,29.75,17,3,35,1.18
2013-6-8,71.0,65.8,59.0,68.0,63.6,58.0,100,93,77,29.98,29.54,17,9,35,1.29
2013-6-9,77.0,68.2,59.0,63.0,60.2,58.0,97,77,54,30.14,29.98,9,2,17,0.01
2013-6-10,75.0,64.8,58.0,62.0,58.6,57.0,98,82,57,30.17,29.99,5,1,14,0.38
2013-6-11,75.0,63.7,56.0,69.0,62.3,55.0,100,95,77,29.99,29.54,11,5,23,1.49
2013-6-12,68.0,61.2,55.0,61.0,57.2,54.0,99,87,69,29.77,29.54,9,4,22,0.20
2013-6-13,66.0,59.1,54.0,59.0,55.2,52.0,96,87,68,29.80,29.61,7,1,17,0.18
2013-6-14,60.0,55.8,52.0,55.0,52.8,51.0,98,90,78,29.73,29.53,11,5,27,1.15
2013-6-15,74.0,64.0,55.0,59.0,54.5,43.0,97,74,34,29.93,29.72,8,3,19,0.05
2013-6-16,77.0,66.8,59.0,63.0,59.5,54.0,97,79,46,29.94,29.75,14,5,25,0.00
2013-6-17,80.0,69.8,62.0,68.0,63.8,60.0,95,82,63,29.92,29.77,12,4,22,0.01
2013-6-18,76.0,67.1,61.0,68.0,62.5,59.0,98,86,70,29.91,29.86,7,1,13,0.01
2013-6-19,66.0,62.0,56.0,61.0,57.0,51.0,97,84,73,30.14,29.83,8,4,20,0.07
2013-6-20,75.0,64.7,55.0,60.0,56.4,52.0,95,76,53,30.25,30.14,11,4,19,0.04
2013-6-22,79.0,72.7,66.0,64.0,61.2,56.0,92,69,48,30.23,30.15,10,7,21,0.00
2013-6-23,80.0,71.9,65.0,70.0,66.9,63.0,95,85,69,30.17,30.05,13,8,26,0.00
2013-6-24,89.0,77.7,69.0,77.0,71.4,67.0,97,82,66,30.06,29.87,13,6,23,0.00
2013-6-25,89.0,76.6,69.0,72.0,68.6,65.0,90,77,52,29.89,29.75,11,5,20,0.00
2013-6-26,88.0,77.5,70.0,74.0,70.8,68.0,96,81,62,29.82,29.71,11,2,19,0.01
2013-6-27,76.0,69.4,66.0,70.0,67.4,65.0,99,94,79,29.84,29.74,7,1,14,0.01
2013-6-28,71.0,69.4,69.0,71.0,69.2,68.0,100,99,98,29.74,29.56,15,9,30,0.26
2013-6-29,71.0,69.5,68.0,71.0,69.1,68.0,100,99,97,29.75,29.54,11,7,22,0.96
2013-6-30,76.0,70.3,68.0,72.0,69.3,68.0,100,97,86,29.96,29.75,10,6,19,0.02
2013-7-1,75.0,71.2,69.0,73.0,70.5,69.0,100,98,90,30.11,29.96,12,6,21,0.11
2013-7-2,79.0,73.1,70.0,74.0,71.4,69.0,99,95,86,30.20,30.10,10,6,21,0.02
2013-7-3,83.0,75.7,71.0,76.0,72.4,70.0,99,90,75,30.22,30.16,11,7,21,0.01
2013-7-4,86.0,78.0,72.0,78.0,73.9,71.0,98,88,71,30.21,30.11,10,6,21,0.00
2013-7-5,89.0,79.6,73.0,79.0,73.5,69.0,94,82,67,30.15,30.06,12,6,20,0.00
2013-7-6,91.0,80.2,73.0,79.0,74.3,71.0,93,83,68,30.07,29.96,8,5,17,0.00
2013-7-7,91.0,81.5,73.0,77.0,73.5,69.0,94,78,62,30.00,29.91,10,4,18,0.00
2013-7-8,89.0,78.0,73.0,77.0,72.8,70.0,96,85,67,30.03,29.91,10,4,20,0.00
2013-7-9,73.0,70.2,69.0,71.0,68.8,68.0,99,96,89,30.08,30.01,3,0,8,0.23
2013-7-10,81.0,73.6,70.0,76.0,70.2,-99.9,100,93,81,30.06,29.82,11,5,21,0.23
2013-7-11,76.0,74.1,72.0,74.0,72.7,70.0,98,96,92,29.89,29.80,10,5,21,0.05
2013-7-12,72.0,69.5,66.0,71.0,68.1,64.0,100,95,86,30.15,29.88,6,2,15,0.01
2013-7-13,80.0,71.7,67.0,74.0,69.6,66.0,100,94,82,30.28,30.15,5,0,10,0.09
2013-7-14,83.0,76.1,71.0,77.0,74.0,71.0,100,94,81,30.28,30.18,8,2,13,0.45
2013-7-15,85.0,78.2,72.0,77.0,74.2,72.0,100,88,68,30.18,30.08,4,0,10,0.35
2013-7-16,83.0,77.4,71.0,74.0,70.9,67.0,95,81,65,30.14,30.06,4,2,13,0.00
2013-7-17,86.0,76.4,69.0,74.0,70.1,68.0,98,82,59,30.16,30.03,8,2,16,0.00
2013-7-18,87.0,79.8,75.0,77.0,73.4,70.0,93,81,69,30.03,29.95,8,4,18,0.00
2013-7-19,90.0,81.7,76.0,80.0,76.9,74.0,98,86,69,29.96,29.77,14,7,24,0.00
2013-7-20,87.0,80.8,76.0,78.0,75.6,69.0,94,85,72,29.78,29.67,13,8,24,0.00
2013-7-21,82.0,74.6,68.0,73.0,70.2,66.0,95,87,71,29.98,29.77,6,1,10,0.01
2013-7-22,81.0,71.9,68.0,72.0,68.7,66.0,98,90,69,29.99,29.87,5,1,13,0.01
2013-7-23,84.0,75.8,70.0,78.0,73.6,69.0,99,93,82,29.88,29.55,12,4,24,0.00
2013-7-24,86.0,78.2,72.0,77.0,72.3,64.0,96,83,66,29.87,29.56,8,2,16,0.00
2013-7-25,72.0,65.8,62.0,68.0,61.9,59.0,98,88,81,30.02,29.87,7,4,20,0.08
2013-7-26,67.0,64.9,63.0,67.0,64.9,62.0,100,100,98,30.00,29.85,12,5,27,1.52
2013-7-27,81.0,72.3,64.0,72.0,68.6,64.0,100,89,66,30.05,30.00,9,4,17,0.14
2013-7-28,75.0,71.8,70.0,75.0,70.4,69.0,100,96,90,30.02,29.93,5,1,10,0.10
2013-7-29,80.0,73.2,66.0,75.0,70.8,66.0,100,93,78,30.03,29.98,10,3,17,0.03
2013-7-30,78.0,72.0,67.0,70.0,66.1,62.0,99,83,60,30.07,29.99,6,2,13,0.01
2013-7-31,80.0,70.6,63.0,69.0,63.1,60.0,93,78,58,30.11,30.05,7,1,14,0.00
2013-8-1,79.0,70.8,64.0,70.0,65.5,62.0,98,84,64,30.05,29.89,12,3,18,0.05
2013-8-2,80.0,71.1,66.0,74.0,67.8,65.0,99,90,70,29.89,29.78,8,2,17,0.32
2013-8-3,73.0,70.5,69.0,69.0,67.0,65.0,95,88,79,29.88,29.79,10,4,19,0.03
2013-8-4,76.0,69.5,61.0,67.0,62.0,57.0,91,78,60,29.84,29.75,6,1,15,0.01
2013-8-5,72.0,65.8,59.0,62.0,56.8,50.0,92,74,50,30.01,29.84,6,2,20,0.00
2013-8-6,78.0,65.3,55.0,60.0,56.3,52.0,97,75,43,30.15,30.01,6,1,14,0.00
2013-8-7,78.0,66.7,57.0,64.0,56.4,51.0,99,73,43,30.18,30.13,8,1,15,0.00
2013-8-8,80.0,71.2,61.0,72.0,66.0,55.0,94,84,70,30.13,30.04,12,5,22,0.00
2013-8-9,75.0,73.3,70.0,74.0,71.9,69.0,99,96,92,30.07,29.78,19,10,34,0.26
2013-8-10,85.0,74.9,68.0,73.0,67.9,59.0,99,80,50,29.98,29.78,9,3,18,0.01
2013-8-11,76.0,69.2,60.0,61.0,57.8,51.0,92,68,43,30.06,29.97,6,2,13,0.00
2013-8-12,77.0,70.2,64.0,71.0,65.6,60.0,95,86,70,30.03,29.92,10,3,16,0.00
2013-8-13,73.0,68.1,65.0,70.0,65.7,-99.9,99,95,89,29.92,29.66,6,1,11,0.09
2013-8-14,76.0,66.1,63.0,66.0,56.2,-99.9,99,78,50,29.92,29.65,8,3,20,0.01
2013-8-15,76.0,61.4,57.0,59.0,44.3,-99.9,92,68,45,30.11,29.92,9,2,30,0.00
2013-8-16,78.0,67.9,62.0,62.0,56.0,-99.9,94,71,47,30.19,30.09,12,3,22,0.00
2013-8-17,75.0,67.2,58.0,66.0,63.1,57.0,98,87,73,30.26,30.18,5,1,11,0.00
2013-8-18,75.0,66.2,61.0,67.0,60.6,-99.9,99,85,63,30.26,30.08,2,0,7,0.09
2013-8-19,81.0,65.8,58.0,69.0,52.7,-99.9,99,84,61,30.08,29.94,6,1,13,0.09
2013-8-20,84.0,72.3,65.0,70.0,64.6,-99.9,98,80,61,30.08,29.96,6,2,13,0.03
2013-8-21,86.0,72.8,63.0,71.0,66.7,62.0,95,82,52,30.13,30.04,10,2,17,0.01
2013-8-22,82.0,73.8,69.0,74.0,70.3,65.0,98,89,75,30.04,29.84,11,6,19,0.00
2013-8-23,73.0,69.8,62.0,71.0,63.6,57.0,98,82,60,30.06,29.80,11,4,22,0.00
2013-8-24,70.0,64.6,55.0,62.0,55.7,49.0,94,74,47,30.30,30.06,8,2,22,0.00
2013-8-25,80.0,66.1,53.0,62.0,54.6,-99.9,95,70,46,30.34,30.21,9,2,15,0.00
2013-8-26,76.0,70.5,65.0,67.0,64.8,59.0,90,82,73,30.21,29.88,13,7,24,0.00
2013-8-27,71.0,69.8,69.0,70.0,68.9,67.0,99,97,90,29.88,29.82,7,1,15,0.38
2013-8-28,71.0,68.2,64.0,69.0,66.8,64.0,99,95,91,29.92,29.85,3,0,11,0.00
2013-8-29,68.0,64.8,62.0,66.0,63.6,59.0,100,95,89,30.02,29.91,6,2,17,0.01
2013-8-30,74.0,66.7,61.0,69.0,63.4,58.0,98,90,80,29.99,29.85,9,2,13,0.00
2013-8-31,77.0,71.7,68.0,72.0,69.9,67.0,98,94,86,29.86,29.83,12,7,22,0.00
2013-9-1,76.0,71.9,70.0,74.0,69.9,-99.9,100,96,92,29.89,29.83,11,6,18,1.23
2013-9-2,79.0,73.5,72.0,75.0,72.2,71.0,100,96,86,29.88,29.72,9,5,18,0.01
2013-9-3,80.0,71.6,67.0,75.0,70.3,66.0,100,96,83,29.80,29.68,10,2,17,1.76
2013-9-4,79.0,67.9,59.0,68.0,63.1,59.0,100,85,59,29.91,29.78,8,3,16,0.65
2013-9-5,73.0,63.7,54.0,67.0,60.8,53.0,98,91,78,30.09,29.86,6,2,17,0.06
2013-9-6,66.0,59.1,53.0,55.0,51.5,50.0,96,77,58,30.20,30.09,4,0,12,0.02
2013-9-7,73.0,62.6,52.0,60.0,54.6,49.0,93,77,52,30.11,29.87,15,4,22,0.00
2013-9-8,76.0,66.6,61.0,66.0,57.0,-99.9,92,74,58,30.04,29.72,9,4,21,0.00
2013-9-9,68.0,60.6,50.0,55.0,48.8,44.0,86,66,48,30.22,30.04,9,2,19,0.00
2013-9-10,72.0,67.3,61.0,68.0,61.2,55.0,92,81,73,30.18,30.06,13,7,23,0.00
2013-9-11,84.0,74.8,69.0,75.0,71.0,68.0,98,88,74,30.10,29.98,10,6,21,0.00
2013-9-12,80.0,73.4,70.0,74.0,70.4,69.0,97,91,78,30.00,29.72,15,9,28,0.00
2013-9-13,73.0,69.8,64.0,71.0,68.0,62.0,99,94,84,29.71,29.56,9,2,18,0.69
2013-9-14,68.0,62.6,58.0,62.0,58.1,56.0,96,85,75,30.02,29.69,7,2,18,0.01
2013-9-15,68.0,57.8,52.0,57.0,51.1,-99.9,96,82,62,30.14,30.02,8,2,17,0.00
2013-9-16,65.0,59.8,56.0,60.0,56.3,50.0,97,89,77,30.16,30.00,11,2,25,0.02
2013-9-17,57.0,53.2,46.0,50.0,44.4,41.0,92,72,57,30.36,30.16,9,5,23,0.02
2013-9-18,57.0,46.1,45.0,50.0,43.9,42.0,94,91,88,30.31,30.14,2,0,7,0.00
2013-9-19,75.0,63.5,55.0,61.0,56.6,53.0,95,80,57,30.14,30.03,5,2,11,0.00
2013-9-20,77.0,64.6,54.0,62.0,58.2,53.0,99,81,51,30.07,30.01,8,2,13,0.00
2013-9-21,76.0,66.1,56.0,67.0,62.5,55.0,99,89,67,30.03,29.78,12,4,22,0.04
2013-9-22,71.0,65.1,58.0,68.0,61.0,-99.9,98,89,81,29.78,29.65,14,5,29,0.10
2013-9-23,60.0,56.0,51.0,52.0,47.9,45.0,85,74,63,29.96,29.78,10,5,23,0.01
2013-9-24,59.0,52.8,44.0,51.0,46.0,41.0,90,78,63,29.96,29.81,7,2,16,0.00
2013-9-25,63.0,55.2,47.0,54.0,49.6,45.0,95,82,66,29.95,29.86,6,1,12,0.00
2013-9-26,61.0,56.8,50.0,53.0,50.6,48.0,96,80,65,30.08,29.94,7,2,18,0.00
2013-9-27,62.0,58.4,52.0,56.0,53.7,50.0,95,85,76,30.23,30.07,7,3,19,0.00
2013-9-28,67.0,58.1,50.0,61.0,54.2,49.0,100,88,70,30.28,30.22,5,1,11,0.00
2013-9-29,68.0,57.0,49.0,57.0,51.8,-99.9,98,86,62,30.24,30.08,5,1,11,0.00
2013-9-30,65.0,60.1,56.0,60.0,57.1,54.0,98,90,80,30.08,29.93,7,2,15,0.00
2013-10-1,58.0,57.0,56.0,57.0,53.8,53.0,96,89,86,29.93,29.87,3,0,6,0.00
2013-10-2,79.0,68.6,58.0,65.0,60.7,55.0,97,77,59,29.91,29.81,9,3,17,0.00
2013-10-3,74.0,66.0,59.0,60.0,56.6,54.0,90,73,53,30.06,29.91,6,2,13,0.00
2013-10-4,72.0,59.4,52.0,60.0,55.9,50.0,98,89,60,30.06,30.00,3,0,14,0.12
2013-10-5,66.0,61.0,57.0,63.0,59.5,56.0,100,95,82,30.09,30.03,2,0,8,0.02
2013-11-3,-200.0,0.0,200.0,-99.9,-99.9,-99.9,0,0,100,29.68,29.68,1,1,7,0.00
2013-11-4,43.0,39.2,34.0,30.0,28.7,27.0,81,66,56,30.66,30.55,11,3,22,0.00
2013-11-5,49.0,40.0,35.0,38.0,33.9,30.0,92,79,64,30.68,30.52,3,0,8,0.00
2013-11-6,58.0,48.9,37.0,54.0,45.4,35.0,97,88,69,30.53,30.09,12,4,18,0.00
2013-11-7,62.0,56.8,48.0,62.0,55.6,46.0,99,96,92,30.07,29.68,11,6,26,0.85
2013-11-12,39.0,34.0,32.0,37.0,29.3,26.0,96,83,70,30.13,29.98,13,7,24,0.15
2013-11-13,36.0,32.4,30.0,26.0,22.7,16.0,79,68,54,30.24,30.13,11,6,25,0.03
2013-11-14,50.0,41.8,29.0,36.0,29.3,19.0,83,62,39,30.19,30.04,9,4,19,0.01
2013-11-15,59.0,50.6,44.0,49.0,41.1,31.0,94,71,48,30.20,30.13,13,5,23,0.00
2013-11-16,59.0,47.1,39.0,46.0,37.3,-99.9,95,72,42,30.31,30.19,7,1,11,0.00
2013-11-17,58.0,50.2,38.0,57.0,47.8,36.0,99,92,61,30.31,29.90,12,4,20,0.22
2013-11-18,62.0,56.8,50.0,60.0,53.5,42.0,100,89,66,29.88,29.57,20,8,43,0.40
2013-11-19,51.0,42.3,36.0,42.0,29.4,25.0,74,60,51,30.22,29.63,14,7,26,0.02
2013-11-20,40.0,37.3,34.0,28.0,25.3,23.0,69,62,53,30.56,30.22,10,6,25,0.00
2013-11-21,48.0,39.0,30.0,35.0,30.4,25.0,92,72,54,30.60,30.40,6,0,12,0.00
2013-11-22,52.0,46.8,38.0,52.0,45.1,34.0,99,94,85,30.40,29.82,8,2,16,0.18
2013-11-23,49.0,43.7,34.0,48.0,31.1,-99.9,98,65,40,29.85,29.75,9,4,22,0.01
2013-11-24,33.0,26.8,23.0,23.0,9.6,2.0,66,48,34,30.13,29.75,20,11,44,0.01
2013-11-25,32.0,25.0,19.0,22.0,5.3,-1.0,75,44,25,30.36,30.13,13,4,29,0.00
2013-11-26,47.0,42.1,30.0,46.0,35.5,25.0,97,78,62,30.32,30.09,9,3,18,0.08
2013-11-27,60.0,53.6,41.0,60.0,53.2,40.0,100,99,95,30.03,29.13,23,12,43,1.52
2013-11-28,41.0,33.9,27.0,40.0,22.7,13.0,95,64,47,30.41,29.40,14,6,25,0.02
2013-11-29,36.0,29.8,25.0,21.0,17.5,14.0,68,60,50,30.68,30.41,7,3,19,0.00
2013-11-30,37.0,30.3,25.0,29.0,19.0,-99.9,83,65,47,30.74,30.47,7,1,14,0.00
2013-12-1,49.0,43.7,36.0,49.0,39.5,29.0,99,86,73,30.47,29.95,10,6,20,0.15
2013-12-2,47.0,41.8,40.0,47.0,41.0,38.0,99,97,93,29.95,29.89,4,2,13,0.01
2013-12-3,43.0,41.0,37.0,42.0,39.2,35.0,95,94,88,29.90,29.79,8,5,20,0.00
2013-12-4,44.0,37.3,32.0,35.0,32.5,30.0,92,83,65,30.19,29.91,6,2,13,0.00
2013-12-5,53.0,45.8,32.0,53.0,44.4,30.0,100,95,90,30.20,29.96,9,4,20,0.00
2013-12-6,57.0,49.3,39.0,57.0,49.1,37.0,100,99,90,30.08,29.88,9,5,20,0.21
2013-12-7,41.0,37.5,34.0,39.0,31.2,-99.9,98,82,57,30.40,30.02,9,6,22,0.33
2013-12-8,35.0,32.3,28.0,25.0,23.0,20.0,76,69,64,30.56,30.41,9,2,18,0.01
2013-12-9,47.0,39.7,32.0,47.0,38.4,25.0,99,95,72,30.45,29.84,14,3,25,0.35
2013-12-10,38.0,33.9,28.0,37.0,32.6,24.0,98,95,85,29.97,29.77,6,2,16,0.02
2013-12-14,32.0,25.0,21.0,31.0,18.7,-99.9,97,80,64,30.54,30.15,10,4,21,0.00
2013-12-15,50.0,35.8,28.0,50.0,34.2,24.0,100,94,76,30.15,29.29,17,8,36,1.01
2013-12-16,32.0,28.2,21.0,25.0,16.4,10.0,83,62,43,30.20,29.75,10,4,22,0.01
2013-12-17,42.0,26.5,16.0,41.0,20.4,11.0,98,78,53,30.24,29.82,12,3,22,0.15
2013-12-18,37.0,32.5,26.0,37.0,28.5,22.0,99,86,69,30.08,29.75,12,7,28,0.01
2013-12-19,47.0,37.7,29.0,37.0,30.0,23.0,82,74,62,30.11,29.96,13,6,32,0.01
2013-12-20,55.0,44.4,33.0,48.0,39.8,31.0,95,84,65,30.12,29.96,13,6,26,0.00
2013-12-21,56.0,50.5,48.0,53.0,47.5,-99.9,98,92,83,30.00,29.91,13,8,24,0.00
2013-12-22,60.0,53.1,43.0,60.0,52.4,42.0,99,98,93,30.00,29.85,18,9,36,0.00
2013-12-23,45.0,42.7,40.0,44.0,42.4,40.0,100,99,97,30.03,29.91,6,2,16,0.42
2013-12-24,41.0,36.2,29.0,41.0,32.1,22.0,100,85,61,30.15,29.98,12,7,25,0.17
2013-12-25,30.0,23.2,20.0,24.0,16.0,11.0,85,74,64,30.53,30.15,12,6,28,0.01
2013-12-26,40.0,31.8,20.0,37.0,28.8,16.0,98,88,74,30.48,30.03,10,3,18,0.24
2013-12-27,36.0,31.1,28.0,27.0,23.5,21.0,90,74,59,30.26,30.18,8,3,16,0.01
2013-12-28,49.0,37.3,26.0,36.0,29.5,-99.9,94,77,56,30.24,30.01,13,5,27,0.00
2013-12-29,52.0,42.6,34.0,52.0,41.4,32.0,100,96,88,30.04,29.27,19,6,34,0.97
2013-12-30,43.0,37.5,29.0,41.0,31.8,19.0,99,81,53,30.10,29.36,13,6,34,0.01
2013-12-31,29.0,24.8,19.0,23.0,17.2,12.0,92,73,53,30.15,30.01,7,4,21,0.01
2014-1-1,31.0,25.1,21.0,17.0,12.3,9.0,73,58,45,30.36,30.16,11,4,19,0.01